LXFYG EDSB-EDDM

Flight info

Callsign LXFYG
Flight time 0h 41m
Altitude 23000
Route GAGSI2Z GAGSI Y712 LBU L173 RIXED Y161 LELTA T107 ROKIL ROKIL1B
Aircraft C25B/M-SDE2E3FGHRWXY/LB1

Departure

Time 2026-05-05 19:22
Airport Karlsruhe Baden-Baden Airport (EDSB)

Arrival

Time 2026-05-05 20:03
Airport Munich Airport (EDDM)
Time Latitude Longitude Altitude Speed Heading
2026-05-05 19:09 48.77374 8.08255 407 ft 0 kts 32°
2026-05-05 19:17 48.77376 8.08258 407 ft 3 kts 31°
2026-05-05 19:17 48.77384 8.08250 407 ft 1 kts 234°
2026-05-05 19:17 48.77355 8.08227 407 ft 7 kts 214°
2026-05-05 19:17 48.77347 8.08159 407 ft 8 kts 301°
2026-05-05 19:18 48.77379 8.08077 407 ft 10 kts 302°
2026-05-05 19:18 48.77424 8.07995 407 ft 7 kts 303°
2026-05-05 19:18 48.77455 8.07924 407 ft 8 kts 317°
2026-05-05 19:18 48.77523 8.07955 407 ft 14 kts 32°
2026-05-05 19:19 48.77613 8.08039 407 ft 16 kts 31°
2026-05-05 19:19 48.77713 8.08131 407 ft 18 kts 31°
2026-05-05 19:19 48.77822 8.08231 407 ft 19 kts 31°
2026-05-05 19:19 48.77938 8.08338 407 ft 20 kts 32°
2026-05-05 19:20 48.78058 8.08457 407 ft 21 kts 31°
2026-05-05 19:20 48.78187 8.08574 407 ft 22 kts 31°
2026-05-05 19:20 48.78290 8.08656 407 ft 15 kts 356°
2026-05-05 19:20 48.78335 8.08588 408 ft 8 kts 301°
2026-05-05 19:21 48.78367 8.08508 408 ft 9 kts 300°
2026-05-05 19:21 48.78344 8.08432 409 ft 10 kts 212°
2026-05-05 19:21 48.78149 8.08251 411 ft 77 kts 211°
2026-05-05 19:21 48.77361 8.07520 812 ft 165 kts 211°
2026-05-05 19:22 48.76313 8.06584 2339 ft 176 kts 210°
2026-05-05 19:22 48.75235 8.05664 4114 ft 171 kts 211°
2026-05-05 19:22 48.74103 8.04776 5465 ft 205 kts 210°
2026-05-05 19:22 48.72756 8.03733 6352 ft 222 kts 210°
2026-05-05 19:23 48.71349 8.02671 6983 ft 242 kts 209°
2026-05-05 19:23 48.69801 8.01491 6998 ft 245 kts 210°
2026-05-05 19:23 48.68361 8.00383 6995 ft 237 kts 210°
2026-05-05 19:23 48.66862 7.99240 6987 ft 230 kts 210°
2026-05-05 19:24 48.65467 7.98177 6990 ft 225 kts 209°
2026-05-05 19:24 48.64081 7.97122 6991 ft 221 kts 210°
2026-05-05 19:24 48.62721 7.96086 6989 ft 218 kts 209°
2026-05-05 19:24 48.61368 7.95061 6996 ft 216 kts 209°
2026-05-05 19:25 48.60033 7.94045 7027 ft 213 kts 210°
2026-05-05 19:25 48.58645 7.93009 7428 ft 232 kts 208°
2026-05-05 19:25 48.57142 7.91903 7940 ft 249 kts 208°
2026-05-05 19:25 48.55542 7.90735 8461 ft 262 kts 208°
2026-05-05 19:26 48.53771 7.89926 8979 ft 278 kts 184°
2026-05-05 19:26 48.51885 7.90843 9499 ft 300 kts 150°
2026-05-05 19:26 48.50504 7.93283 9995 ft 319 kts 119°
2026-05-05 19:26 48.50091 7.96608 10469 ft 333 kts 88°
2026-05-05 19:27 48.50722 7.99995 10962 ft 340 kts 67°
2026-05-05 19:27 48.51725 8.03236 11475 ft 343 kts 65°
2026-05-05 19:27 48.52657 8.06556 11989 ft 346 kts 71°
2026-05-05 19:27 48.53312 8.10060 12499 ft 348 kts 78°
2026-05-05 19:28 48.53888 8.13618 13042 ft 351 kts 76°
2026-05-05 19:28 48.54580 8.17158 13573 ft 352 kts 73°
2026-05-05 19:28 48.55313 8.20690 14060 ft 354 kts 74°
2026-05-05 19:28 48.56005 8.24261 14547 ft 355 kts 75°
2026-05-05 19:29 48.56684 8.27828 15033 ft 355 kts 75°
2026-05-05 19:29 48.57375 8.31418 15534 ft 355 kts 75°
2026-05-05 19:29 48.58073 8.34993 16038 ft 355 kts 75°
2026-05-05 19:29 48.58764 8.38574 16547 ft 355 kts 75°
2026-05-05 19:30 48.59450 8.42148 17068 ft 355 kts 75°
2026-05-05 19:30 48.60137 8.45731 17610 ft 354 kts 75°
2026-05-05 19:30 48.60824 8.49306 18134 ft 354 kts 75°
2026-05-05 19:30 48.61507 8.52869 18604 ft 353 kts 76°
2026-05-05 19:31 48.62189 8.56447 19084 ft 353 kts 75°
2026-05-05 19:31 48.62867 8.60005 19561 ft 353 kts 76°
2026-05-05 19:31 48.63545 8.63572 20053 ft 352 kts 76°
2026-05-05 19:31 48.64223 8.67119 20551 ft 352 kts 76°
2026-05-05 19:32 48.65009 8.70616 21051 ft 352 kts 66°
2026-05-05 19:32 48.66287 8.73781 21563 ft 354 kts 56°
2026-05-05 19:32 48.67954 8.76524 22080 ft 354 kts 45°
2026-05-05 19:32 48.69643 8.79159 22603 ft 353 kts 49°
2026-05-05 19:33 48.71338 8.81897 22829 ft 363 kts 48°
2026-05-05 19:33 48.73039 8.84797 22816 ft 371 kts 58°
2026-05-05 19:33 48.73958 8.88482 22824 ft 372 kts 80°
2026-05-05 19:33 48.74385 8.92261 22831 ft 376 kts 84°
2026-05-05 19:34 48.74778 8.96202 22841 ft 381 kts 82°
2026-05-05 19:34 48.75373 9.00129 22840 ft 386 kts 76°
2026-05-05 19:34 48.76181 9.04023 22841 ft 388 kts 75°
2026-05-05 19:35 48.77555 9.11956 22841 ft 392 kts 78°
2026-05-05 19:35 48.78229 9.15972 22837 ft 394 kts 77°
2026-05-05 19:35 48.78944 9.19995 22839 ft 395 kts 77°
2026-05-05 19:35 48.79653 9.24024 22840 ft 396 kts 77°
2026-05-05 19:36 48.80339 9.28071 22839 ft 397 kts 78°
2026-05-05 19:36 48.81031 9.32119 22841 ft 397 kts 77°
2026-05-05 19:36 48.81727 9.36178 22840 ft 397 kts 77°
2026-05-05 19:36 48.82427 9.40232 22840 ft 398 kts 77°
2026-05-05 19:37 48.83114 9.44299 22792 ft 394 kts 78°
2026-05-05 19:37 48.83782 9.48258 22163 ft 382 kts 78°
2026-05-05 19:37 48.84447 9.52122 21443 ft 375 kts 77°
2026-05-05 19:37 48.85088 9.55925 20856 ft 367 kts 78°
2026-05-05 19:38 48.85709 9.59588 20830 ft 355 kts 78°
2026-05-05 19:38 48.86324 9.63236 20828 ft 360 kts 78°
2026-05-05 19:38 48.86945 9.66945 20827 ft 364 kts 78°
2026-05-05 19:38 48.87577 9.70686 20825 ft 367 kts 78°
2026-05-05 19:39 48.88052 9.74489 20826 ft 366 kts 89°
2026-05-05 19:39 48.88003 9.78350 20821 ft 365 kts 98°
2026-05-05 19:39 48.87694 9.82184 20829 ft 367 kts 99°
2026-05-05 19:39 48.87397 9.86040 20832 ft 368 kts 99°
2026-05-05 19:40 48.87100 9.89908 20835 ft 370 kts 99°
2026-05-05 19:40 48.86802 9.93785 20837 ft 371 kts 99°
2026-05-05 19:40 48.86492 9.97678 20840 ft 371 kts 99°
2026-05-05 19:40 48.86187 10.01580 20844 ft 372 kts 99°
2026-05-05 19:41 48.85981 10.04172 20845 ft 372 kts 99°
2026-05-05 19:41 48.85677 10.08074 20847 ft 373 kts 99°
2026-05-05 19:41 48.85362 10.11988 20851 ft 373 kts 99°
2026-05-05 19:41 48.85051 10.15901 20854 ft 373 kts 99°
2026-05-05 19:42 48.84735 10.19814 20856 ft 374 kts 99°
2026-05-05 19:42 48.84425 10.23722 20855 ft 374 kts 99°
2026-05-05 19:42 48.84105 10.27643 20856 ft 374 kts 99°
2026-05-05 19:42 48.83790 10.31557 20861 ft 374 kts 99°
2026-05-05 19:43 48.83467 10.35476 20861 ft 374 kts 99°
2026-05-05 19:43 48.82877 10.39278 20846 ft 370 kts 112°
2026-05-05 19:43 48.81832 10.42823 20849 ft 366 kts 121°
2026-05-05 19:43 48.80366 10.45961 20846 ft 364 kts 132°
2026-05-05 19:44 48.78638 10.48754 20849 ft 363 kts 136°
2026-05-05 19:44 48.76904 10.51537 20849 ft 363 kts 135°
2026-05-05 19:44 48.75170 10.54318 20849 ft 364 kts 136°
2026-05-05 19:44 48.73452 10.57070 20847 ft 364 kts 135°
2026-05-05 19:45 48.71709 10.59841 20851 ft 364 kts 136°
2026-05-05 19:45 48.69965 10.62625 20846 ft 364 kts 135°
2026-05-05 19:45 48.68217 10.65404 20844 ft 364 kts 136°
2026-05-05 19:45 48.66471 10.68187 20844 ft 365 kts 136°
2026-05-05 19:46 48.64719 10.70963 20846 ft 365 kts 136°
2026-05-05 19:46 48.62968 10.73748 20844 ft 365 kts 136°
2026-05-05 19:46 48.61214 10.76527 20840 ft 365 kts 136°
2026-05-05 19:46 48.59487 10.79255 20309 ft 354 kts 136°
2026-05-05 19:47 48.57808 10.81928 19706 ft 348 kts 136°
2026-05-05 19:47 48.56166 10.84559 19127 ft 342 kts 135°
2026-05-05 19:47 48.54549 10.87165 18549 ft 338 kts 136°
2026-05-05 19:47 48.52942 10.89723 17964 ft 334 kts 136°
2026-05-05 19:48 48.51543 10.92503 17307 ft 334 kts 123°
2026-05-05 19:48 48.50543 10.95657 16669 ft 334 kts 113°
2026-05-05 19:48 48.50004 10.99073 16047 ft 336 kts 101°
2026-05-05 19:48 48.49918 11.02593 15436 ft 337 kts 88°
2026-05-05 19:49 48.50210 11.06093 14843 ft 336 kts 84°
2026-05-05 19:49 48.50482 11.09589 14261 ft 335 kts 85°
2026-05-05 19:49 48.50782 11.13066 13689 ft 334 kts 84°
2026-05-05 19:49 48.51071 11.16524 13222 ft 329 kts 85°
2026-05-05 19:50 48.51366 11.19958 12858 ft 330 kts 83°
2026-05-05 19:50 48.51853 11.23261 12835 ft 315 kts 78°
2026-05-05 19:50 48.52318 11.26501 12830 ft 320 kts 81°
2026-05-05 19:50 48.52766 11.29850 12825 ft 330 kts 79°
2026-05-05 19:51 48.53271 11.33270 12824 ft 338 kts 79°
2026-05-05 19:51 48.53771 11.36774 12836 ft 344 kts 79°
2026-05-05 19:51 48.54278 11.40320 12835 ft 348 kts 79°
2026-05-05 19:51 48.54780 11.43914 12841 ft 351 kts 80°
2026-05-05 19:52 48.55219 11.47545 12840 ft 351 kts 87°
2026-05-05 19:52 48.55134 11.51168 12835 ft 350 kts 95°
2026-05-05 19:52 48.55547 11.54837 12814 ft 355 kts 71°
2026-05-05 19:52 48.56258 11.58340 12824 ft 354 kts 83°
2026-05-05 19:53 48.56282 11.62028 12823 ft 351 kts 98°
2026-05-05 19:53 48.55658 11.65553 12822 ft 346 kts 114°
2026-05-05 19:53 48.54875 11.69000 12658 ft 347 kts 110°
2026-05-05 19:53 48.54160 11.72404 12323 ft 333 kts 112°
2026-05-05 19:54 48.53387 11.75635 11987 ft 323 kts 113°
2026-05-05 19:54 48.52645 11.78788 11654 ft 316 kts 112°
2026-05-05 19:54 48.51927 11.81910 11319 ft 314 kts 112°
2026-05-05 19:54 48.51217 11.85009 10991 ft 312 kts 112°
2026-05-05 19:55 48.50505 11.88078 10740 ft 307 kts 112°
2026-05-05 19:55 48.49803 11.91112 10415 ft 306 kts 112°
2026-05-05 19:55 48.49094 11.94149 10033 ft 308 kts 112°
2026-05-05 19:55 48.48388 11.97199 9635 ft 309 kts 112°
2026-05-05 19:56 48.47675 12.00258 9213 ft 310 kts 112°
2026-05-05 19:56 48.46961 12.03324 8796 ft 310 kts 111°
2026-05-05 19:56 48.46245 12.06393 8378 ft 310 kts 112°
2026-05-05 19:56 48.45527 12.09459 7964 ft 311 kts 111°
2026-05-05 19:57 48.44816 12.12518 7535 ft 308 kts 111°
2026-05-05 19:57 48.43925 12.15408 7078 ft 302 kts 129°
2026-05-05 19:57 48.42269 12.17201 6603 ft 294 kts 163°
2026-05-05 19:57 48.40284 12.17406 6135 ft 285 kts 194°
2026-05-05 19:58 48.38589 12.16021 5664 ft 278 kts 227°
2026-05-05 19:58 48.37714 12.13524 5304 ft 270 kts 259°
2026-05-05 19:58 48.37869 12.10771 5010 ft 265 kts 288°
2026-05-05 19:58 48.38866 12.08458 4699 ft 264 kts 309°
2026-05-05 19:59 48.39670 12.06204 4732 ft 228 kts 282°
2026-05-05 19:59 48.39528 12.03945 4273 ft 217 kts 252°
2026-05-05 19:59 48.38966 12.01896 3913 ft 208 kts 248°
2026-05-05 19:59 48.38423 11.99965 3669 ft 197 kts 251°
2026-05-05 20:00 48.38006 11.97990 3288 ft 195 kts 258°
2026-05-05 20:00 48.37778 11.96045 3108 ft 185 kts 264°
2026-05-05 20:00 48.37649 11.94251 2972 ft 164 kts 264°
2026-05-05 20:00 48.37529 11.92700 2985 ft 133 kts 264°
2026-05-05 20:01 48.37404 11.91388 2799 ft 120 kts 263°
2026-05-05 20:01 48.37303 11.90181 2629 ft 113 kts 266°
2026-05-05 20:01 48.37241 11.89034 2420 ft 110 kts 265°
2026-05-05 20:01 48.37147 11.87887 2253 ft 111 kts 262°
2026-05-05 20:02 48.37049 11.86735 2140 ft 111 kts 264°
2026-05-05 20:02 48.36950 11.85588 2009 ft 111 kts 264°
2026-05-05 20:02 48.36870 11.84464 1833 ft 110 kts 265°
2026-05-05 20:02 48.36782 11.83341 1686 ft 104 kts 263°
2026-05-05 20:03 48.36701 11.82262 1531 ft 102 kts 265°
2026-05-05 20:03 48.36624 11.81218 1480 ft 92 kts 265°
2026-05-05 20:03 48.36562 11.80396 1480 ft 60 kts 261°
2026-05-05 20:03 48.36517 11.79927 1480 ft 35 kts 254°
2026-05-05 20:04 48.36427 11.79654 1471 ft 25 kts 237°
2026-05-05 20:04 48.36395 11.79589 1479 ft 0 kts 233°
2026-05-05 20:04 48.36387 11.79573 1480 ft 5 kts 234°
2026-05-05 20:05 48.36358 11.79512 1476 ft 12 kts 233°
2026-05-05 20:05 48.36307 11.79411 1480 ft 12 kts 233°
2026-05-05 20:05 48.36252 11.79317 1480 ft 12 kts 211°
2026-05-05 20:05 48.36167 11.79304 1478 ft 13 kts 175°
2026-05-05 20:06 48.36100 11.79379 1477 ft 14 kts 87°
2026-05-05 20:06 48.36075 11.79477 1480 ft 10 kts 155°
2026-05-05 20:06 48.36000 11.79498 1476 ft 12 kts 175°
2026-05-05 20:06 48.35942 11.79505 1473 ft 0 kts 176°
2026-05-05 20:07 48.35936 11.79506 1480 ft 5 kts 175°
2026-05-05 20:07 48.35891 11.79514 1473 ft 8 kts 174°
2026-05-05 20:07 48.35832 11.79536 1477 ft 10 kts 135°
2026-05-05 20:08 48.35825 11.79646 1480 ft 12 kts 84°
2026-05-05 20:08 48.35833 11.79730 1480 ft 5 kts 82°
2026-05-05 20:08 48.35839 11.79799 1480 ft 8 kts 82°
2026-05-05 20:08 48.35846 11.79895 1480 ft 11 kts 84°
2026-05-05 20:09 48.35855 11.80016 1480 ft 13 kts 83°
2026-05-05 20:09 48.35867 11.80160 1480 ft 15 kts 82°
2026-05-05 20:09 48.35872 11.80260 1480 ft 6 kts 86°
2026-05-05 20:09 48.35854 11.80325 1471 ft 8 kts 128°
2026-05-05 20:10 48.35805 11.80355 1480 ft 4 kts 175°
2026-05-05 20:10 48.35790 11.80357 1478 ft 3 kts 173°
2026-05-05 20:10 48.35784 11.80358 1473 ft 0 kts 174°